Location: Batang Balui
(2.7000°N, 113.7833°E)
Time: 12:36:45
(UTC+00:00)

CZ-6A DEB - Visible Passes

Search period start: 08 December 2023 00:00
Search period end: 18 December 2023 00:00
Orbit: 670 x 834 km, 98.6° (Epoch: 07 December)

Date Brightness Start Highest point End Pass type
(mag) Time Alt. Az. Time Alt. Az. Time Alt. Az.
09 Dec ? 11:24:05 10° SSW 11:28:26 27° WSW 11:32:54 10° NW visible
10 Dec ? 10:42:39 10° S 10:47:54 84° WSW 10:53:18 10° NNW visible
11 Dec ? 11:42:31 10° SW 11:45:50 17° WSW 11:49:13 10° WNW visible
12 Dec ? 11:00:10 10° S 11:05:16 52° WSW 11:10:31 10° NNW visible
12 Dec ? 21:51:38 10° ENE 21:54:39 17° ESE 21:57:37 10° SE visible
14 Dec ? 11:17:53 10° SSW 11:22:35 32° WSW 11:27:23 10° NW visible
15 Dec ? 10:36:41 10° SSE 10:42:01 82° ENE 10:47:26 10° N visible
16 Dec ? 11:35:58 10° SSW 11:39:52 21° WSW 11:43:49 10° NW visible
17 Dec ? 10:53:58 10° S 10:59:15 63° WSW 11:04:37 10° NNW visible
17 Dec ? 21:46:12 10° ENE 21:48:26 13° ESE 21:50:41 10° SE visible
